This is the latest recevied weather packets stored in our database for station/object KB3HLL. If no packets are shown the sender has not sent any weather packets the latest 10 day(s).
| Time | Temp. | Humidity | Pressure | Rain* | Wind** | Luminosity | Snow |
|---|---|---|---|---|---|---|---|
| 1777724178 | 2.22° C | 98% | 1014.9 hPa | 0 mm | - | 275 W/m² | - |
| 1777723878 | 2.22° C | 97% | 1014.9 hPa | 0 mm | - | 278 W/m² | - |
| 1777723577 | 2.22° C | 99% | 1014.7 hPa | 0 mm | - | 270 W/m² | - |
| 1777723278 | 1.67° C | 100% | 1014.6 hPa | 0 mm | - | 256 W/m² | - |
| 1777722978 | 1.67° C | 100% | 1014.6 hPa | 0 mm | - | 225 W/m² | - |
| 1777722678 | 1.67° C | 100% | 1014.3 hPa | 0 mm | - | 203 W/m² | - |
| 1777722378 | 1.67° C | 100% | 1014.1 hPa | 0 mm | - | 193 W/m² | - |
| 1777722078 | 1.67° C | 100% | 1013.9 hPa | 0 mm | - | 200 W/m² | - |
| 1777721778 | 1.67° C | 100% | 1013.9 hPa | 0 mm | - | 181 W/m² | - |
| 1777721477 | 1.67° C | 100% | 1013.7 hPa | 0 mm | - | 166 W/m² | - |
| 1777721178 | 1.67° C | 99% | 1013.6 hPa | 0 mm | - | 142 W/m² | - |
| 1777720879 | 1.11° C | 99% | 1013.4 hPa | 0 mm | - | 139 W/m² | - |
| 1777720577 | 1.11° C | 99% | 1013 hPa | 0 mm | - | 119 W/m² | - |
| 1777720278 | 1.11° C | 99% | 1012.5 hPa | 0 mm | - | 114 W/m² | - |
| 1777719978 | 1.11° C | 99% | 1012.5 hPa | 0 mm | - | 93 W/m² | - |
| 1777719678 | 1.11° C | 99% | 1012.7 hPa | 0 mm | - | 75 W/m² | - |
| 1777719377 | 1.11° C | 99% | 1012.7 hPa | 0 mm | - | 62 W/m² | - |
| 1777719078 | 1.11° C | 99% | 1012.5 hPa | 0 mm | - | 42 W/m² | - |
| 1777718778 | 1.11° C | 99% | 1012.4 hPa | 0 mm | - | 35 W/m² | - |
| 1777718477 | 1.11° C | 99% | 1012 hPa | 0 mm | - | 34 W/m² | - |
| 1777718178 | 1.11° C | 99% | 1011.8 hPa | 0 mm | - | 29 W/m² | - |
| 1777717878 | 1.11° C | 99% | 1011.8 hPa | 0 mm | - | 23 W/m² | - |
| 1777717578 | 1.11° C | 99% | 1011.7 hPa | 0 mm | - | 19 W/m² | - |
| 1777717278 | 1.11° C | 99% | 1011.3 hPa | 0 mm | - | 14 W/m² | - |
| 1777716978 | 1.11° C | 99% | 1011.1 hPa | 0 mm | - | 10 W/m² | - |
* Rain latest hour (hover to see other rain measurements)
** Current wind speed in m/s (hover to see current wind gust speed)